TimeEST,TemperatureF,Dew PointF,Humidity,Sea Level PressureIn,VisibilityMPH,Wind Direction,Wind SpeedMPH,Gust SpeedMPH,PrecipitationIn,Events,Conditions,WindDirDegrees,DateUTC
12:53 AM,35.1,23.0,61,30.15,10.0,SW,9.2,-,N/A,,Overcast,220,2013-01-06 05:53:00
1:53 AM,34.0,23.0,64,30.15,10.0,SW,6.9,-,N/A,,Overcast,220,2013-01-06 06:53:00
2:53 AM,34.0,23.0,64,30.14,10.0,SW,8.1,-,N/A,,Overcast,230,2013-01-06 07:53:00
3:53 AM,34.0,23.0,64,30.12,10.0,SW,8.1,-,N/A,,Overcast,230,2013-01-06 08:53:00
4:53 AM,33.1,23.0,66,30.10,10.0,SSW,8.1,-,N/A,,Overcast,210,2013-01-06 09:53:00
5:53 AM,33.1,24.1,70,30.09,10.0,SSW,6.9,-,N/A,,Overcast,210,2013-01-06 10:53:00
6:53 AM,34.0,24.1,67,30.10,10.0,SW,8.1,-,N/A,,Overcast,230,2013-01-06 11:53:00
7:53 AM,34.0,24.1,67,30.09,10.0,SW,8.1,-,N/A,,Overcast,220,2013-01-06 12:53:00
8:53 AM,35.1,25.0,67,30.09,10.0,SSW,8.1,-,N/A,,Overcast,210,2013-01-06 13:53:00
9:53 AM,36.0,25.0,64,30.09,10.0,SW,10.4,18.4,N/A,,Overcast,220,2013-01-06 14:53:00
10:53 AM,36.0,26.1,67,30.09,10.0,WSW,12.7,-,N/A,,Overcast,240,2013-01-06 15:53:00
11:53 AM,37.0,26.1,65,30.05,10.0,SW,16.1,21.9,N/A,,Overcast,230,2013-01-06 16:53:00
12:53 PM,37.0,26.1,65,30.02,10.0,SW,9.2,-,N/A,,Overcast,230,2013-01-06 17:53:00
1:53 PM,37.0,27.0,67,30.01,10.0,SW,10.4,-,N/A,,Overcast,230,2013-01-06 18:53:00
2:53 PM,37.0,27.0,67,30.02,10.0,SW,10.4,-,N/A,,Overcast,230,2013-01-06 19:53:00
3:53 PM,37.0,27.0,67,30.04,10.0,WSW,10.4,18.4,N/A,,Overcast,240,2013-01-06 20:53:00
4:48 PM,37.4,28.4,70,30.02,8.0,WSW,8.1,-,0.00,Snow,Light Snow,240,2013-01-06 21:48:00
4:53 PM,36.0,28.0,73,30.06,8.0,WSW,10.4,-,0.00,Snow,Light Snow,240,2013-01-06 21:53:00
5:03 PM,35.6,28.4,75,30.03,8.0,WSW,9.2,-,0.00,Snow,Light Snow,240,2013-01-06 22:03:00
5:23 PM,35.6,28.4,75,30.04,8.0,WSW,9.2,-,0.00,Snow,Light Snow,250,2013-01-06 22:23:00
5:53 PM,35.1,30.0,82,30.09,7.0,West,10.4,-,0.00,Snow,Light Snow,270,2013-01-06 22:53:00
6:14 PM,33.8,30.2,87,30.06,8.0,West,10.4,-,0.00,Snow,Light Snow,260,2013-01-06 23:14:00
6:53 PM,34.0,30.9,89,30.12,10.0,WSW,10.4,-,0.00,,Overcast,250,2013-01-06 23:53:00
7:32 PM,33.8,30.2,87,30.09,9.0,WSW,9.2,-,N/A,,Overcast,250,2013-01-07 00:32:00
7:43 PM,33.8,30.2,87,30.09,9.0,WSW,9.2,-,N/A,,Overcast,250,2013-01-07 00:43:00
7:53 PM,34.0,30.9,89,30.14,9.0,West,8.1,-,N/A,,Overcast,260,2013-01-07 00:53:00
8:39 PM,33.8,30.2,87,30.11,9.0,West,8.1,-,N/A,,Overcast,260,2013-01-07 01:39:00
8:53 PM,34.0,30.9,89,30.16,9.0,West,10.4,-,N/A,,Overcast,270,2013-01-07 01:53:00
9:53 PM,34.0,30.0,85,30.18,8.0,West,8.1,-,0.00,,Overcast,280,2013-01-07 02:53:00
10:05 PM,33.8,30.2,87,30.15,9.0,WNW,10.4,-,N/A,,Overcast,290,2013-01-07 03:05:00
10:43 PM,33.8,26.6,75,30.18,10.0,WNW,12.7,21.9,N/A,,Overcast,290,2013-01-07 03:43:00
10:53 PM,33.1,27.0,78,30.22,10.0,West,13.8,20.7,N/A,,Overcast,280,2013-01-07 03:53:00
11:53 PM,32.0,26.1,79,30.26,8.0,West,6.9,-,N/A,,Overcast,280,2013-01-07 04:53:00